Location: Ambrosina
(19.9365°S, 43.9833°W)
Time: 01:06:37
(UTC+00:00)

Cosmos 1606 - Pass Details

Date: 11 May 2021
Orbit: 503 x 525 km, 82.5° (Epoch: 20 June)

Event Time Altitude Azimuth Distance (km) Brightness Sun altitude
Rises 21:35:27 0° 174° (S) 2,625 6.1 -15.9°
Enters shadow 21:36:06 - 173° (S) 2,360 5.8 -16.0°
Exits shadow 21:41:31 38° 85° (E) 791 3.1 -17.2°
Drops below altitude 10° 21:44:45 10° 27° (NNE) 1,708 5.2 -18.0°
Sets 21:46:57 0° 19° (NNE) 2,585 6.2 -18.5°
